Tracking 35048 objects as of 19-Aug-2026
HD Live streaming from Space Station
objects crossing your sky now

COSMOS 1355 DEB


COSMOS 1355 DEB is no longer on orbit


NORAD ID: 14684
Int'l Code: 1982-038AB
Launch date: April 29, 1982
Source: Commonwealth of Independent States (former USSR) (CIS)
Launch site: TYURATAM MISSILE AND SPACE COMPLEX (TTMTR)
Decay date: 1984-02-11

Note: This is SATELLITE DEBRIS
Your satellite tracking list
Your tracking list is empty




NASA's NSSDC Master Catalog

Two Line Element Set (TLE):
1 14684U 82038 AB 84039.27701230  .01966776 +30759-4 +96381-3 0  9990
2 14684 065.0002 356.9367 0092400 192.8631 168.3956 16.11002906028556
Source of the keplerian elements: AFSPC